Change the Weather History Date:

Wednesday, January 22, 2014

  Actual Average Record
Temperature  
Mean Temperature 54 °F -  
Max Temperature 73 °F 68 °F 84 °F (2000)
Min Temperature 34 °F 46 °F 32 °F (2011)
Degree Days  
Heating Degree Days 12    
Growing Degree Days 4 (Base 50)    
Moisture  
Dew Point 34 °F    
Average Humidity 53    
Maximum Humidity 89    
Minimum Humidity 18    
Precipitation  
Precipitation 0.00 in - - ()
Sea Level Pressure  
Sea Level Pressure 30.11 in    
Wind  
Wind Speed 5 mph (South)    
Max Wind Speed 15 mph    
Max Gust Speed 20 mph    
Visibility 10 miles    
Events      
Averages and records for this station are not official NWS values.
T = Trace of Precipitation, MM = Missing Value Source: NWS Daily Summary

Daily Weather History Graph

Daily Weather History Graph

Search for Another Location

Airport or City:

Trip Planner

Search our weather history database for the weather conditions in past years. The results will help you decide how hot, cold, wet, or windy it might be!

Date:

Astronomy

Jan. 22, 2014 Rise Set
Actual Time 7:22 AM CST 6:04 PM CST
Civil Twilight 6:57 AM CST 6:29 PM CST
Nautical Twilight 6:29 AM CST 6:58 PM CST
Astronomical Twilight 6:01 AM CST 7:26 PM CST
Moon No Moon Rise 10:59 AM CST (1/22)
Length of Visible Light 11h 31m
Length of Day
10h 42m
Waning Gibbous, 65% of the Moon is Illuminated
Jan 22
Waning Gibbous
Jan 23
Last Quarter
Jan 30
New
Feb 6
First Quarter
Feb 14
Full

Hourly Weather History & Observations

Time (CST) Temp. Windchill Dew Point Humidity Pressure Visibility Wind Dir Wind Speed Gust Speed Precip Events Conditions
12:53 AM 39.0 °F - 27.0 °F 62% 30.25 in 10.0 mi Calm Calm - N/A   Clear
1:53 AM 37.9 °F - 27.0 °F 65% 30.23 in 10.0 mi Calm Calm - N/A   Clear
2:53 AM 36.0 °F - 26.1 °F 67% 30.21 in 10.0 mi Calm Calm - N/A   Clear
3:53 AM 37.9 °F 35.5 °F 27.0 °F 65% 30.20 in 10.0 mi West 3.5 mph - N/A   Clear
4:53 AM 35.1 °F 32.2 °F 26.1 °F 70% 30.19 in 10.0 mi West 3.5 mph - N/A   Clear
5:53 AM 34.0 °F - 26.1 °F 73% 30.19 in 10.0 mi Calm Calm - N/A   Clear
6:53 AM 35.1 °F 30.1 °F 26.1 °F 70% 30.19 in 10.0 mi WSW 5.8 mph - N/A   Clear
7:53 AM 37.0 °F 33.3 °F 26.1 °F 65% 30.20 in 10.0 mi WSW 4.6 mph - N/A   Clear
8:53 AM 48.9 °F - 30.9 °F 50% 30.20 in 10.0 mi SW 9.2 mph - N/A   Clear
9:21 AM 55.4 °F - 30.2 °F 38% 30.20 in 10.0 mi SSW 8.1 mph - N/A   Partly Cloudy
9:53 AM 59.0 °F - 32.0 °F 36% 30.21 in 10.0 mi SSW 9.2 mph - N/A   Clear
10:53 AM 64.9 °F - 30.0 °F 27% 30.21 in 10.0 mi South 10.4 mph - N/A   Clear
11:53 AM 69.1 °F - 26.1 °F 20% 30.17 in 10.0 mi South 10.4 mph - N/A   Clear
12:53 PM 70.0 °F - 27.0 °F 20% 30.12 in 10.0 mi South 15.0 mph 19.6 mph N/A   Clear
1:53 PM 73.0 °F - 27.0 °F 18% 30.06 in 10.0 mi South 11.5 mph 18.4 mph N/A   Clear
2:53 PM 73.0 °F - 30.0 °F 20% 30.01 in 10.0 mi South 11.5 mph 17.3 mph N/A   Clear
3:53 PM 73.0 °F - 30.0 °F 20% 30.00 in 10.0 mi South 11.5 mph 19.6 mph N/A   Clear
4:53 PM 72.0 °F - 32.0 °F 23% 29.99 in 10.0 mi SSE 12.7 mph - N/A   Clear
5:53 PM 66.0 °F - 46.0 °F 48% 29.99 in 10.0 mi SE 15.0 mph - N/A   Clear
6:53 PM 61.0 °F - 48.0 °F 62% 30.01 in 10.0 mi SE 9.2 mph - N/A   Clear
7:53 PM 59.0 °F - 48.9 °F 69% 30.00 in 10.0 mi SE 10.4 mph - N/A   Clear
8:53 PM 57.0 °F - 50.0 °F 77% 30.01 in 10.0 mi SSE 9.2 mph - N/A   Clear
9:53 PM 55.0 °F - 50.0 °F 83% 30.01 in 10.0 mi SSE 8.1 mph - N/A   Clear
10:53 PM 51.1 °F - 48.0 °F 89% 30.01 in 10.0 mi SSE 5.8 mph - N/A   Clear
11:53 PM 50.0 °F - 46.9 °F 89% 30.00 in 10.0 mi ESE 4.6 mph - N/A   Clear